DateTimeUTC,F1_A11,F1_S11,BsB_S11,BsG_S11,BsR_S11,BbsB_S11,BbsG_S11,BbsR_S11,BaB_A11,BaG_A11,BaR_A11,Tu_S11,T_S11,Uu_S11,U_S11,P_S11,T1_A11
2021-05-07T03:00:00Z,00040200,21000000,,,,,,,-000.06,-000.21,0000.02,17.1,24.3,,00.0,0673.4,31.1
2021-05-07T03:01:00Z,00040200,21000000,,,,,,,0000.05,0000.49,0000.34,17.1,24.3,,00.0,0673.4,31.1
2021-05-07T03:02:00Z,00040200,21000000,,,,,,,0000.10,-000.21,-000.00,17.2,24.3,,00.0,0673.4,31.1
2021-05-07T03:03:00Z,00040200,61000000,,,,,,,0000.98,0000.90,0000.57,17.2,24.4,,00.0,0673.4,31.1
2021-05-07T03:04:00Z,00040200,41000000,0004.10,0001.82,0000.87,0000.65,0000.52,0000.24,0000.90,0001.05,0000.65,17.4,24.2,,00.0,0674.3,31.1
2021-05-07T03:05:00Z,00040200,01000000,0002.49,0001.52,0000.63,0000.89,0000.26,0000.42,0000.96,0000.72,0000.73,17.4,24.2,00.0,00.0,0674.4,31.0
2021-05-07T03:06:00Z,00040200,01000000,0002.56,0001.76,0001.14,0000.25,0000.15,0000.01,0000.96,0000.71,0000.43,17.4,24.1,00.0,00.0,0674.4,31.0
2021-05-07T03:07:00Z,00040200,01000000,0004.56,0003.00,0001.49,0000.58,0000.30,0000.51,0001.04,0001.00,0000.51,17.3,24.1,00.0,00.0,0674.4,31.0
2021-05-07T03:08:00Z,00040200,01000000,0002.46,0001.61,0000.74,0000.50,0000.43,0000.31,0000.66,0000.51,0000.63,17.3,24.0,,00.0,0674.3,31.0
2021-05-07T03:09:00Z,00040200,01000000,0003.65,0002.27,0001.17,0000.69,0000.62,0000.09,0001.37,0001.03,0000.81,17.3,24.0,00.0,00.0,0674.3,31.0
2021-05-07T03:10:00Z,00040200,01000000,0004.15,0002.69,0001.39,0000.36,0000.61,0000.23,0000.78,0000.92,0000.60,17.3,24.0,00.0,00.0,0674.3,31.0
2021-05-07T03:11:00Z,00040200,01000000,0004.31,0002.96,0001.68,0000.58,0000.48,0000.19,0001.25,0001.45,0000.88,17.3,24.0,00.0,00.0,0674.3,31.0
2021-05-07T03:12:00Z,00040200,01000000,0004.25,0003.02,0001.46,0001.12,0000.22,0000.14,0001.16,0000.82,0000.99,17.4,24.0,00.0,00.0,0674.4,31.0
2021-05-07T03:13:00Z,00040200,01000000,0005.72,0003.43,0002.21,0001.10,0000.48,0000.41,0001.48,0000.87,0000.73,17.4,24.1,00.0,00.0,0674.3,31.0
2021-05-07T03:14:00Z,00040200,01000000,0006.47,0003.91,0002.38,0000.29,0000.50,0000.25,0001.29,0001.55,0000.90,17.5,24.1,00.0,00.0,0674.4,31.1
2021-05-07T03:15:00Z,00040200,01000000,0006.35,0004.46,0002.76,0001.80,0000.52,0000.62,0001.50,0001.72,0000.98,17.5,24.1,00.0,00.0,0674.4,31.1
2021-05-07T03:16:00Z,00040200,01000000,0007.22,0004.13,0003.08,0000.77,0000.57,0000.56,0001.42,0001.04,0001.31,17.6,24.1,00.0,00.0,0674.4,31.1
2021-05-07T03:17:00Z,00040200,01000000,0006.37,0003.82,0002.82,0000.95,0000.58,0000.71,0001.63,0001.66,0000.91,17.6,24.2,00.0,00.0,0674.4,31.1
2021-05-07T03:18:00Z,00040200,01000000,0006.04,0003.95,0002.55,0000.61,0000.59,0000.52,0001.42,0001.29,0000.76,17.6,24.2,00.0,00.0,0674.4,31.1
2021-05-07T03:19:00Z,00040200,01000000,0006.36,0004.22,0002.55,0001.00,0000.39,0000.65,0001.64,0001.32,0001.11,17.7,24.2,00.0,00.0,0674.4,31.1
2021-05-07T03:20:00Z,00040200,01000000,0006.74,0004.41,0002.52,0000.69,0000.85,0000.26,0001.31,0001.04,0000.90,17.7,24.2,00.0,00.0,0674.4,31.1
2021-05-07T03:21:00Z,00040200,01000000,0005.85,0003.95,0002.56,0000.86,0000.74,0000.39,0001.18,0001.28,0001.07,17.6,24.2,00.0,00.0,0674.4,31.1
2021-05-07T03:22:00Z,00040200,01000000,0006.11,0004.37,0002.50,0000.60,0000.50,0000.60,0001.54,0001.29,0000.95,17.6,24.2,00.1,00.0,0674.4,31.1
2021-05-07T03:23:00Z,00040200,01000000,0006.33,0004.38,0002.86,0000.99,0000.35,0000.26,0001.47,0001.15,0000.92,17.5,24.1,00.1,00.0,0674.4,31.1
2021-05-07T03:24:00Z,00040200,01000000,0005.64,0004.32,0002.57,0001.12,0000.65,0000.51,0001.54,0001.57,0001.15,17.5,24.1,00.0,00.0,0674.4,31.0
2021-05-07T03:25:00Z,00040200,01000000,0006.06,0004.49,0002.68,0000.59,0000.57,0000.39,0001.43,0001.17,0000.97,17.5,24.1,00.0,00.0,0674.4,31.1
2021-05-07T03:26:00Z,00040200,01000000,0006.02,0004.09,0002.52,0000.95,0000.70,0000.36,0001.54,0001.39,0001.07,17.6,24.1,00.1,00.0,0674.4,31.1
2021-05-07T03:27:00Z,00040200,01000000,0006.55,0003.88,0002.33,0000.96,0000.40,0000.36,0001.19,0001.58,0000.98,17.6,24.2,00.0,00.0,0674.4,31.1
2021-05-07T03:28:00Z,00040200,01000000,0006.05,0003.90,0002.34,0000.79,0000.56,0000.36,0001.48,0001.12,0000.94,17.7,24.2,00.1,00.0,0674.4,31.1
2021-05-07T03:29:00Z,00040200,01000000,0006.47,0004.32,0002.53,0001.11,0000.44,0000.50,0001.68,0001.50,0001.21,17.7,24.2,00.1,00.1,0674.4,31.1
2021-05-07T03:30:00Z,00040200,01000000,0005.08,0004.11,0002.46,0000.97,0000.60,0000.42,0001.40,0000.84,0000.50,17.7,24.2,00.1,00.0,0674.4,31.1
2021-05-07T03:31:00Z,00040200,01000000,0005.94,0003.92,0002.40,0000.94,0000.56,0000.46,0001.11,0001.43,0001.15,17.6,24.2,00.1,00.1,0674.4,31.1
2021-05-07T03:32:00Z,00040200,01000000,0005.10,0003.80,0002.45,0001.01,0000.41,0000.44,0001.35,0001.19,0000.89,17.6,24.2,00.1,00.0,0674.4,31.0
2021-05-07T03:33:00Z,00040200,01000000,0004.55,0003.45,0002.17,0001.10,0000.59,0000.52,0001.43,0001.36,0001.11,17.5,24.1,00.2,00.1,0674.4,31.0
2021-05-07T03:34:00Z,00040200,01000000,0005.35,0004.03,0002.78,0000.94,0000.58,0000.56,0001.50,0000.98,0000.78,17.4,24.1,00.1,00.1,0674.4,31.0
2021-05-07T03:35:00Z,00040200,01000000,0004.59,0003.24,0001.76,0000.96,0000.42,0000.35,0000.84,0000.88,0000.68,17.4,24.1,00.2,00.1,0674.4,31.0
2021-05-07T03:36:00Z,00040200,01000000,0004.61,0003.82,0002.17,0000.40,0000.30,0000.48,0001.28,0001.30,0000.75,17.4,24.0,00.1,00.1,0674.4,31.0
2021-05-07T03:37:00Z,00040200,01000000,0006.04,0003.45,0002.34,0000.90,0000.70,0000.47,0001.40,0001.03,0000.86,17.3,24.0,00.2,00.1,0674.4,31.0
2021-05-07T03:38:00Z,00040200,01000000,0005.12,0003.38,0001.78,0000.64,0000.45,0000.29,0000.88,0001.14,0000.96,17.3,23.9,00.2,00.1,0674.3,31.0
2021-05-07T03:39:00Z,00040200,01000000,0004.85,0003.86,0002.41,0000.64,0000.55,0000.42,0001.66,0001.49,0000.67,17.2,23.9,00.2,00.2,0674.4,31.0
2021-05-07T03:40:00Z,00040200,01000000,0005.06,0003.57,0002.15,0000.51,0000.55,0000.53,0001.10,0000.81,0000.90,17.3,23.9,00.3,00.2,0674.3,31.0
2021-05-07T03:41:00Z,00040200,01000000,0004.96,0003.32,0001.81,0001.04,0000.48,0000.22,0001.20,0000.94,0001.05,17.3,24.0,00.2,00.2,0674.3,31.0
2021-05-07T03:42:00Z,00040200,01000000,0004.78,0002.97,0001.92,0001.00,0000.60,0000.24,0001.18,0001.07,0000.56,17.4,24.0,00.4,00.2,0674.3,31.0
2021-05-07T03:43:00Z,00040200,01000000,0005.27,0003.37,0002.33,0001.06,0000.43,0000.33,0001.17,0001.69,0001.16,17.4,24.0,00.3,00.2,0674.3,31.1
2021-05-07T03:44:00Z,00040200,01000000,0004.64,0003.22,0001.90,0000.93,0000.53,0000.41,0001.51,0000.74,0000.85,17.5,24.0,00.3,00.2,0674.3,31.1
2021-05-07T03:45:00Z,00040200,01000000,0004.99,0003.85,0002.09,0000.91,0000.73,0000.32,0001.27,0001.32,0000.97,17.5,24.1,00.3,00.2,0674.4,31.1
2021-05-07T03:46:00Z,00040200,01000000,0005.04,0003.43,0002.51,0000.81,0000.55,0000.61,0001.33,0001.09,0000.53,17.6,24.1,00.4,00.3,0674.4,31.1
2021-05-07T03:47:00Z,00040200,01000000,0005.75,0004.06,0002.30,0000.90,0000.65,0000.54,0001.07,0000.89,0000.84,17.6,24.1,00.3,00.2,0674.4,31.1
2021-05-07T03:48:00Z,00040200,01000000,0004.86,0003.91,0002.42,0000.78,0000.62,0000.44,0000.88,0000.90,0000.84,17.7,24.2,00.3,00.2,0674.4,31.1
2021-05-07T03:49:00Z,00040200,01000000,0005.48,0003.81,0002.60,0000.86,0000.63,0000.76,0001.39,0001.40,0000.84,17.8,24.2,00.3,00.2,0674.4,31.1
2021-05-07T03:50:00Z,00040200,01000000,0006.07,0004.04,0002.41,0001.26,0000.66,0000.30,0001.17,0000.88,0000.99,17.8,24.2,00.3,00.2,0674.4,31.1
2021-05-07T03:51:00Z,00040200,01000000,0005.30,0003.99,0002.73,0000.44,0000.41,0000.56,0001.29,0001.46,0000.82,17.8,24.2,00.3,00.2,0674.4,31.1
2021-05-07T03:52:00Z,00040200,01000000,0006.29,0003.56,0002.40,0001.12,0000.46,0000.58,0001.49,0001.13,0000.78,17.8,24.2,00.2,00.2,0674.4,31.1
2021-05-07T03:53:00Z,00040200,01000000,0005.17,0003.60,0002.66,0001.20,0000.46,0000.28,0001.25,0001.20,0000.78,17.8,24.2,00.2,00.2,0674.4,31.1
2021-05-07T03:54:00Z,00040200,01000000,0005.20,0003.86,0002.50,0000.87,0000.55,0000.35,0000.91,0001.02,0001.04,17.8,24.2,00.3,00.2,0674.4,31.1
2021-05-07T03:55:00Z,00040200,01000000,0005.79,0003.98,0002.57,0000.88,0000.52,0000.52,0001.50,0001.07,0000.82,17.8,24.2,00.3,00.2,0674.3,31.1
2021-05-07T03:56:00Z,00040200,01000000,0006.06,0003.72,0002.42,0001.16,0000.63,0000.25,0001.59,0001.44,0001.13,17.9,24.2,00.3,00.2,0674.4,31.1
2021-05-07T03:57:00Z,00040200,41000000,,,,,,,-000.84,-000.65,-000.84,17.9,24.3,,00.0,0674.4,31.1
2021-05-07T03:58:00Z,00040200,61000000,,,,,,,0000.59,0000.54,0000.32,17.6,24.5,,00.0,0673.4,31.1
2021-05-07T03:59:00Z,00040200,21000000,,,,,,,-000.39,-000.12,0000.13,17.6,24.6,,00.0,0673.4,31.1
